Temp
9 9 9 9 9 9 9 9 9 9 9 10 10 10 10 10 10 10 10 10 10 11 11 11 11 11 11 11 11 11 11 10 10 10 10 10 10 10 9 8 8 8 9
10 9 9 9 9 9 9 9 9 9 9 9 10 10 10 10 10 10 10 10 10 11 11 11 11 11 11 11 11 11 11 11 11 11 11 10 10 10 9 9 9 9 9
10 10 9 9 9 9 9 9 9 9 9 9 9 10 10 10 10 10 10 10 11 11 11 11 11 11 11 11 11 11 11 11 11 11 11 11 11 10 10 10 10 10 11
10 10 10 10 9 9 9 9 9 9 9 9 9 10 10 10 10 10 10 10 11 11 11 11 11 11 11 11 11 11 11 11 11 11 11 11 11 11 11 10 10 10 10
10 10 10 10 10 10 10 10 10 10 10 10 10 9 10 10 10 10 10 10 10 10 11 11 11 11 11 11 11 11 11 11 11 11 11 11 11 11 11 11 10 10 10
10 10 10 10 10 10 10 10 10 10 10 10 10 10 10 10 10 10 10 10 10 11 11 11 11 11 11 11 11 11 11 11 11 11 11 11 11 11 11 10 10 10 10
11 11 10 10 10 10 10 10 10 10 10 10 10 10 10 10 10 10 10 10 10 10 10 11 11 11 11 11 11 11 11 11 11 11 11 11 11 10 11 11 10 10 10
11 11 11 11 11 10 11 11 11 11 10 10 10 10 10 10 10 10 10 10 10 10 10 10 10 11 11 11 11 11 11 11 11 11 11 11 11 10 10 10 10 10 10
11 11 11 11 11 11 11 11 11 11 11 11 11 10 10 10 10 10 10 10 10 10 10 10 10 10 11 11 11 11 11 11 10 11 11 11 11 11 10 10 10 10 10
11 11 11 11 11 11 11 11 11 11 11 11 11 11 10 10 10 10 10 10 10 10 10 10 10 11 11 11 11 11 11 11 10 11 11 11 10 10 10 10 10 10 10
11 11 11 11 11 11 11 11 11 11 11 11 11 11 10 10 10 10 10 10 10 10 10 10 10 11 11 11 11 11 11 11 11 11 11 11 11 10 10 10 10 10 10
11 11 11 11 11 11 11 11 11 11 11 11 11 10 10 10 10 10 10 10 10 10 10 10 10 10 11 11 11 11 11 10 11 11 11 11 11 11 11 10 10 10 10
11 12 11 11 11 11 11 11 11 11 11 11 11 10 10 10 10 10 10 10 10 10 10 10 10 10 10 10 10 11 10 10 11 11 11 11 11 11 11 11 10 10 10
11 11 12 12 12 11 11 11 11 11 11 11 11 11 10 11 10 10 10 10 10 10 10 10 10 10 10 10 10 10 10 11 10 10 11 11 11 11 11 10 10 10 10
11 11 12 12 12 12 12 11 11 11 11 11 11 10 10 10 10 10 10 10 10 10 10 10 10 10 10 10 10 10 11 11 11 11 11 11 11 11 11 11 11 11 10
11 11 12 12 12 12 12 12 11 11 11 11 11 11 11 11 10 10 10 10 10 10 10 10 10 10 10 10 10 11 11 11 11 11 11 11 11 11 11 11 11 10 10
12 11 12 12 12 12 11 12 12 11 11 11 11 11 11 10 10 10 10 10 10 10 10 10 10 10 10 10 10 11 11 11 11 11 11 11 11 11 11 10 11 10 10
12 12 12 12 12 12 11 11 11 11 11 11 11 11 11 10 10 9 9 10 10 10 10 10 10 10 10 10 10 11 11 11 11 11 11 11 11 11 10 10 11 10 10
12 12 12 12 12 12 12 12 11 12 11 11 11 11 10 10 10 9 9 9 9 9 10 10 10 10 10 10 10 10 11 11 11 11 11 11 11 11 10 11 10 10 10
11 12 12 12 12 12 12 12 12 12 11 11 11 11 11 10 10 9 9 9 9 9 9 9 10 10 10 10 10 11 11 11 11 11 11 11 11 10 10 10 10 10 10
11 12 13 12 12 12 12 12 12 11 11 11 11 11 11 10 10 9 9 9 9 9 9 10 10 10 10 10 10 11 11 11 11 11 11 11 11 10 10 10 10 10 10
11 12 13 13 12 12 12 12 12 11 11 11 12 11 11 11 10 9 9 9 9 9 10 10 10 10 10 10 11 11 11 11 11 11 11 11 11 10 10 10 10 10 10
10 11 12 12 12 12 12 12 12 12 12 12 11 11 11 11 10 10 10 10 10 10 10 10 10 10 10 11 11 11 11 11 11 11 11 11 10 10 10 10 10 10 9
9 10 11 12 12 12 12 12 12 12 12 11 11 11 11 11 10 10 10 10 10 10 10 10 10 10 10 11 11 11 11 11 11 11 11 11 10 10 10 10 10 9 9
10 10 11 12 12 12 12 12 12 12 11 11 11 11 11 11 11 10 10 10 10 10 10 10 10 10 10 10 11 11 11 11 11 11 11 11 10 10 10 10 9 9 9
9 10 11 11 12 12 12 12 12 12 12 11 11 11 11 11 11 11 10 10 10 10 10 10 10 10 10 10 11 11 11 11 10 10 10 10 10 10 10 9 9 9 8
Height
3167 3167 3166 3167 3167 3168 3168 3167 3167 3168 3168 3168 3168 3168 3168 3168 3167 3168 3168 3168 3168 3168 3168 3168 3168 3168 3169 3171 3172 3173 3174 3175 3176 3176 3178 3178 3180 3180 3181 3182 3182 3182 3183
3167 3167 3167 3168 3168 3168 3169 3169 3169 3169 3169 3169 3170 3170 3170 3170 3170 3170 3170 3171 3171 3171 3171 3172 3172 3172 3173 3173 3174 3175 3175 3176 3177 3178 3179 3179 3180 3181 3182 3183 3182 3182 3182
3168 3168 3169 3169 3169 3170 3170 3170 3170 3170 3171 3171 3171 3172 3172 3172 3173 3172 3172 3172 3174 3174 3174 3174 3175 3175 3176 3176 3177 3177 3178 3179 3179 3180 3181 3181 3182 3182 3183 3183 3183 3183 3182
3168 3170 3171 3171 3171 3171 3171 3171 3171 3172 3173 3173 3173 3173 3174 3175 3175 3176 3177 3177 3177 3177 3177 3177 3178 3178 3178 3179 3180 3180 3181 3181 3182 3182 3183 3184 3184 3184 3185 3185 3185 3184 3184
3170 3171 3172 3173 3174 3174 3174 3174 3174 3175 3176 3176 3176 3177 3177 3177 3177 3178 3179 3179 3180 3180 3180 3181 3181 3181 3181 3182 3182 3183 3183 3184 3184 3185 3185 3186 3186 3186 3186 3186 3186 3186 3186
3171 3172 3173 3174 3175 3176 3176 3176 3176 3176 3177 3178 3178 3179 3179 3180 3181 3181 3181 3182 3182 3183 3182 3183 3183 3184 3184 3184 3184 3184 3185 3186 3187 3188 3187 3187 3187 3187 3187 3187 3188 3187 3187
3172 3173 3174 3175 3176 3177 3177 3177 3178 3178 3179 3180 3180 3181 3182 3182 3182 3182 3183 3183 3183 3183 3183 3184 3185 3185 3186 3186 3187 3187 3188 3188 3189 3187 3187 3188 3188 3189 3189 3189 3189 3189 3189
3172 3174 3174 3176 3177 3178 3178 3179 3179 3180 3180 3181 3182 3182 3183 3183 3183 3184 3184 3184 3184 3185 3185 3185 3186 3187 3188 3188 3188 3188 3189 3189 3189 3189 3190 3190 3190 3190 3190 3190 3190 3189 3189
3172 3173 3174 3175 3177 3178 3179 3180 3180 3181 3181 3182 3182 3183 3184 3184 3184 3185 3185 3186 3186 3186 3186 3188 3188 3188 3188 3188 3189 3190 3190 3190 3190 3191 3191 3191 3191 3191 3191 3191 3190 3191 3189
3171 3172 3173 3175 3176 3178 3179 3180 3180 3181 3182 3182 3183 3184 3184 3185 3185 3186 3186 3186 3187 3187 3188 3188 3188 3189 3189 3189 3190 3190 3190 3191 3191 3191 3191 3191 3192 3192 3191 3191 3191 3190 3189
3170 3172 3173 3174 3176 3177 3178 3180 3181 3181 3182 3183 3183 3184 3185 3185 3186 3186 3186 3187 3188 3188 3188 3188 3188 3189 3189 3189 3190 3191 3191 3191 3191 3192 3192 3192 3192 3192 3192 3192 3192 3191 3190
3168 3171 3172 3173 3175 3176 3178 3179 3180 3181 3182 3183 3183 3184 3185 3185 3185 3186 3187 3187 3187 3188 3187 3188 3188 3188 3189 3190 3191 3192 3191 3191 3192 3192 3192 3193 3193 3192 3192 3193 3193 3191 3191
3165 3168 3171 3172 3174 3176 3177 3178 3179 3180 3181 3182 3183 3183 3184 3184 3184 3186 3187 3186 3186 3187 3187 3187 3188 3188 3189 3190 3191 3192 3192 3192 3193 3193 3193 3193 3193 3193 3193 3193 3194 3192 3191
3165 3166 3168 3170 3173 3175 3176 3177 3178 3179 3180 3181 3182 3182 3183 3183 3185 3185 3185 3185 3185 3186 3186 3187 3188 3189 3190 3191 3192 3192 3193 3193 3193 3193 3194 3193 3194 3194 3194 3194 3194 3193 3192
3163 3164 3166 3168 3170 3172 3174 3175 3176 3177 3179 3180 3181 3181 3182 3183 3184 3184 3184 3184 3185 3186 3186 3187 3188 3189 3190 3191 3192 3193 3193 3193 3193 3193 3194 3194 3195 3195 3195 3195 3194 3193 3193
3161 3163 3164 3166 3167 3169 3171 3173 3175 3176 3177 3179 3180 3180 3181 3183 3183 3183 3184 3184 3184 3185 3186 3187 3188 3189 3190 3191 3192 3192 3193 3193 3193 3194 3194 3195 3196 3196 3196 3195 3195 3194 3193
3158 3160 3162 3164 3166 3168 3170 3171 3173 3174 3175 3176 3177 3179 3180 3181 3182 3182 3182 3183 3183 3184 3185 3186 3188 3189 3190 3191 3191 3192 3192 3193 3193 3194 3195 3197 3196 3196 3197 3196 3195 3194 3193
3153 3157 3159 3161 3163 3165 3167 3169 3170 3171 3173 3174 3176 3177 3178 3179 3180 3181 3181 3182 3182 3183 3184 3185 3186 3187 3189 3189 3190 3191 3192 3192 3193 3194 3196 3196 3197 3197 3197 3196 3195 3195 3193
3149 3153 3156 3159 3161 3163 3165 3167 3168 3169 3171 3172 3174 3175 3176 3177 3178 3179 3179 3179 3180 3181 3182 3183 3185 3186 3187 3188 3189 3190 3191 3192 3193 3194 3195 3196 3196 3196 3196 3195 3195 3194 3192
3145 3148 3152 3155 3158 3160 3162 3164 3166 3167 3169 3170 3171 3172 3174 3175 3176 3176 3177 3177 3178 3179 3180 3182 3183 3184 3186 3187 3188 3190 3191 3192 3192 3194 3195 3196 3196 3195 3195 3194 3194 3192 3191
3140 3143 3147 3151 3155 3157 3159 3161 3163 3165 3166 3167 3168 3169 3171 3172 3173 3174 3174 3175 3176 3177 3178 3179 3181 3183 3185 3186 3188 3189 3190 3191 3192 3193 3194 3194 3194 3194 3194 3193 3192 3190 3188
3137 3139 3142 3147 3150 3153 3156 3158 3160 3162 3163 3164 3164 3166 3168 3169 3170 3171 3172 3173 3174 3175 3176 3178 3180 3182 3183 3185 3186 3187 3189 3191 3191 3191 3192 3192 3193 3193 3192 3191 3190 3189 3187
3133 3135 3139 3142 3146 3149 3152 3153 3155 3157 3159 3161 3163 3164 3165 3167 3168 3169 3170 3171 3172 3173 3175 3176 3178 3180 3181 3183 3184 3186 3187 3188 3189 3190 3190 3191 3191 3191 3191 3189 3188 3187 3185
3131 3132 3134 3137 3141 3144 3146 3148 3151 3153 3155 3157 3159 3159 3161 3163 3165 3166 3167 3169 3170 3172 3173 3175 3176 3178 3179 3181 3182 3183 3185 3186 3187 3188 3188 3188 3188 3188 3188 3187 3185 3183 3181
3127 3128 3130 3132 3135 3138 3141 3143 3146 3148 3150 3152 3154 3155 3157 3159 3161 3163 3165 3166 3168 3169 3171 3173 3174 3176 3177 3179 3180 3181 3183 3184 3184 3185 3185 3185 3185 3185 3184 3183 3181 3179 3177
3123 3125 3127 3128 3130 3132 3135 3138 3140 3142 3145 3146 3149 3151 3152 3154 3156 3158 3161 3162 3164 3166 3168 3169 3171 3172 3174 3175 3176 3177 3178 3180 3180 3181 3181 3181 3181 3180 3180 3179 3177 3175 3173
Wind_Speed
6 7 8 7 6 6 7 8 10 10 11 12 13 15 15 16 18 19 20 21 22 22 23 23 21 18 14 12 11 10 11 11 9 7 6 6 6 6 6 4 2 4 4
8 8 9 9 8 8 7 9 11 11 11 11 12 14 15 16 16 17 18 19 21 21 22 22 23 23 23 21 21 19 17 15 11 9 8 6 5 4 3 1 2 4 4
8 9 10 10 10 9 10 11 12 12 11 12 13 14 15 16 17 17 18 19 19 20 21 22 22 22 22 21 21 21 20 19 19 17 15 14 13 12 10 8 6 5 6
7 8 10 11 10 11 12 13 13 14 14 15 15 16 17 17 19 20 20 20 20 19 20 20 20 20 20 20 20 19 19 19 17 18 17 16 15 15 14 13 12 10 9
7 7 9 10 11 12 13 14 16 15 16 17 17 17 18 18 18 18 19 19 19 20 19 18 19 19 18 18 18 17 19 16 16 15 15 15 14 13 12 12 11 10 10
7 7 8 8 9 11 12 13 13 14 14 15 15 15 16 16 16 15 16 16 16 16 17 17 16 15 15 16 16 15 16 13 13 13 13 13 12 11 10 10 9 9 9
8 7 7 8 8 8 10 10 11 11 11 12 12 13 13 14 14 13 13 13 13 14 14 14 14 13 13 13 13 12 12 12 10 11 11 10 10 9 9 9 9 8 8
9 8 7 7 7 7 8 8 8 9 9 9 10 10 11 11 12 12 12 11 12 12 12 12 12 11 11 12 11 11 10 10 10 10 10 10 10 9 9 9 9 9 8
7 7 7 6 6 7 7 7 7 7 8 8 8 8 9 9 9 10 11 10 11 11 11 11 11 11 11 11 11 11 11 11 11 11 11 11 11 10 10 10 10 9 9
8 7 7 6 6 6 6 6 6 6 6 6 6 6 7 7 7 8 9 10 10 10 10 10 11 11 12 11 11 11 11 11 11 11 12 11 10 11 10 10 10 10 10
8 8 7 7 6 6 5 6 6 6 6 6 6 5 5 6 6 6 7 7 9 9 10 10 11 11 12 11 11 10 11 12 11 11 11 11 10 11 11 10 9 10 9
9 9 9 8 6 6 6 6 6 6 6 6 5 5 5 5 5 4 6 6 8 9 10 10 10 11 11 11 11 9 11 11 10 10 10 10 11 10 10 9 9 8 8
12 11 10 10 8 7 7 6 6 6 6 6 6 5 5 4 3 4 6 7 8 9 9 9 9 10 10 10 10 9 10 10 10 10 10 10 10 10 9 9 7 9 10
13 13 11 11 10 8 8 7 7 6 6 6 6 6 6 5 7 7 7 7 8 8 8 9 9 10 9 9 9 9 10 10 10 10 9 10 9 9 9 8 9 10 10
14 15 13 11 10 9 8 8 7 7 6 7 7 7 6 7 8 8 7 8 9 9 9 9 9 9 9 10 10 10 10 10 9 10 9 9 8 9 8 9 10 10 11
15 15 15 13 12 10 8 8 8 7 9 9 8 7 7 8 9 9 9 9 10 9 9 10 10 9 9 9 9 9 9 9 10 10 9 9 8 9 8 9 9 9 10
16 17 16 15 14 11 10 9 9 9 9 7 7 7 9 10 10 10 9 10 10 10 10 10 10 9 8 8 9 9 9 10 11 11 10 8 8 8 7 7 8 8 9
18 16 17 17 15 13 11 10 10 8 8 8 8 9 10 11 11 10 9 10 11 11 10 10 10 9 8 9 9 9 10 11 11 10 8 7 7 5 5 6 7 7 8
18 17 17 18 16 15 13 12 11 10 9 10 10 10 11 12 11 10 10 11 10 10 10 10 10 9 9 9 10 11 10 11 10 9 6 5 4 3 4 5 5 6 7
19 19 18 19 18 17 16 14 11 10 9 10 9 10 11 12 11 11 10 10 10 10 11 10 10 10 10 11 11 11 10 9 9 6 4 3 2 2 3 4 5 7 8
21 21 19 19 18 18 17 14 11 9 10 10 10 11 12 12 12 12 11 11 11 11 10 11 11 12 12 12 11 10 8 6 5 3 2 2 1 1 3 4 6 7 8
21 21 21 19 18 18 18 16 13 13 12 12 13 13 13 13 13 13 12 12 11 11 12 12 13 14 13 12 10 9 6 4 3 2 2 1 1 2 2 4 5 7 9
20 20 20 18 18 19 18 18 16 15 14 12 11 12 13 13 14 15 14 13 14 14 14 15 15 14 13 11 9 7 5 4 3 3 2 2 3 3 4 5 6 8 9
15 17 20 20 19 19 20 20 19 17 15 14 14 14 15 15 16 17 18 16 16 16 16 16 15 13 12 11 9 7 6 5 5 5 5 5 6 6 6 8 8 10 11
20 18 19 21 21 21 21 21 21 20 18 17 16 16 17 17 18 19 20 19 19 18 18 16 15 14 13 11 10 9 8 8 8 8 8 8 8 9 9 10 11 12 14
23 20 18 20 22 23 23 24 24 22 21 21 18 18 18 19 19 20 21 22 22 21 20 18 18 16 15 14 12 11 10 10 11 10 11 11 11 11 12 13 13 14 15
Wind_Direction
113 105 102 103 111 116 121 123 115 115 114 113 109 103 99 93 90 91 91 92 92 91 91 94 99 106 110 115 123 135 145 152 169 170 176 173 171 156 156 192 246 333 348
111 104 103 103 102 110 118 120 118 115 114 111 108 104 103 100 98 96 94 92 92 93 93 94 94 95 96 97 98 100 101 108 119 122 130 132 136 132 132 147 8 341 344
115 106 103 103 103 108 113 113 114 114 115 112 107 104 100 99 100 97 95 92 92 93 95 95 95 95 97 97 96 94 95 97 95 93 95 93 93 92 92 83 78 66 52
121 115 112 108 108 111 109 106 105 107 106 105 103 101 99 100 100 100 101 101 99 97 94 94 96 97 97 97 98 98 95 93 96 98 94 91 91 92 93 94 88 86 72
134 129 120 120 122 118 114 112 113 111 111 110 109 108 106 102 99 99 100 100 101 100 101 100 98 98 98 98 98 97 92 90 92 94 96 95 92 91 89 84 84 83 80
153 141 134 130 124 122 120 118 115 113 112 112 111 110 108 109 109 108 106 105 106 107 105 103 103 103 103 99 96 95 100 99 101 101 99 96 94 90 85 86 77 71 68
172 160 152 144 135 131 123 121 119 117 117 115 115 115 115 115 113 111 110 110 107 105 105 106 104 104 103 105 106 106 103 104 103 97 92 90 88 83 76 67 65 59 56
182 174 169 160 149 142 135 131 125 122 120 118 118 118 117 116 117 117 115 113 113 113 108 106 110 114 116 115 113 113 117 113 107 107 107 102 96 90 83 77 70 64 62
193 188 182 176 169 160 154 150 140 138 135 133 128 128 126 121 119 120 120 122 121 116 118 124 125 124 123 120 119 121 118 117 115 113 104 100 98 92 85 79 75 68 64
204 211 202 195 192 177 175 165 159 154 147 146 141 141 134 132 126 125 122 122 123 128 133 130 128 126 121 119 119 118 116 113 108 105 104 100 95 87 82 74 67 65 57
212 216 220 215 203 198 195 189 181 171 168 164 159 155 153 145 139 135 128 133 138 141 137 136 133 127 122 121 118 120 115 109 109 108 105 100 94 87 78 72 69 60 54
232 214 212 224 214 213 212 209 200 193 189 185 178 173 170 160 143 149 154 158 154 152 144 142 137 130 127 124 122 124 115 113 114 108 104 99 92 84 77 72 64 64 55
239 229 210 210 221 218 228 221 217 211 207 203 198 191 185 172 148 195 189 175 163 158 148 140 137 129 133 129 129 129 119 119 116 114 107 99 95 90 86 79 76 64 54
244 244 230 219 218 218 225 230 228 224 218 217 216 204 194 187 200 201 197 179 168 161 151 143 142 139 136 136 141 136 132 127 125 117 107 98 91 91 87 83 73 61 51
241 241 239 240 236 233 225 229 224 228 226 226 223 216 208 211 213 205 195 182 173 165 157 149 147 146 154 149 150 144 137 134 123 110 105 101 98 95 87 78 67 56 47
242 241 242 241 247 249 243 241 234 226 226 221 221 220 222 223 219 210 197 188 182 171 164 159 157 159 162 155 154 143 140 135 123 115 111 108 105 96 85 76 65 52 40
245 237 238 239 245 246 244 245 238 231 229 224 231 232 233 230 222 213 199 191 187 179 173 166 167 166 167 160 152 150 139 134 123 116 111 111 101 89 80 68 53 37 25
247 239 237 239 242 246 247 247 249 240 237 235 235 238 237 234 227 216 204 197 193 187 180 178 175 174 173 161 152 144 142 132 126 117 115 105 90 83 69 54 41 23 13
255 241 235 238 242 244 245 246 248 246 240 239 237 238 239 236 231 222 210 202 197 192 190 187 182 178 176 163 154 149 141 134 126 119 114 100 96 88 62 43 31 14 4
257 243 235 233 235 240 244 244 246 257 256 251 245 244 243 239 236 227 217 207 201 198 195 190 182 177 172 160 154 149 141 136 123 116 110 112 99 60 40 26 14 4 355
254 242 237 235 235 239 245 248 252 262 260 258 251 245 244 242 239 232 220 210 203 199 193 184 176 171 165 156 151 147 140 139 124 129 149 142 102 46 19 6 4 350 349
259 245 239 238 237 240 246 251 253 256 257 254 255 252 247 244 241 235 224 212 203 195 187 179 173 169 163 160 156 157 158 160 162 187 210 211 290 348 352 348 339 337 341
260 250 247 246 242 241 243 247 251 253 258 267 269 261 255 247 243 237 226 214 206 197 190 183 177 174 169 168 169 175 183 195 219 231 246 271 284 298 309 318 321 325 333
252 250 247 248 247 243 243 245 250 255 256 258 257 250 244 243 241 238 229 218 211 204 198 194 188 185 183 185 186 189 203 220 238 246 252 263 278 288 301 305 313 318 325
245 238 245 248 248 245 245 246 247 248 254 254 253 252 248 244 241 239 234 223 216 210 207 203 201 201 202 201 203 209 219 228 241 255 264 269 278 288 294 300 307 313 319
264 264 259 251 250 250 248 246 247 249 250 253 253 252 248 243 242 242 238 229 223 218 216 214 215 216 215 216 220 224 227 235 239 248 257 268 278 286 292 297 300 306 311